Погода в Ванчжоу

Китай     30°48′22″N   108°22′31″E
темп.,
°C
ветер,
м/с
пор.,
м/с
влажн.,
%
обл.,
%
осадки,
мм/ч
давл.,
гПа
погр.,
м
28 февраля, вс
вс2823:00+12в2267100 0.0 101491
02:00+11всв2380100 0.4 1014316
05:00+9всв3490100 1.3 1012311
08:00+8св2390100 1.8 1014206
11:00+8св2289100 1.1 1014245
14:00+8св1287100 1.4 1013246
17:00+9св238397 0.1 1011298
20:00+8св238797 0.1 1014215
1 марта, пн
пн123:00+8св2387100 0.1 1016175
02:00+8св1292100 1.3 1016173
05:00+8зюз0096100 3.3 1017109
08:00+8ссв1196100 7.1 1021138
11:00+8ссв2395100 2.4 1024234
14:00+8вюв2382100 3.1 1024426
17:00+8в1285100 0.4 1024184
20:00+8св118799 0.4 102756
2 марта, вт
вт223:00+7св229175 0.0 102823
02:00+6всв229267 0.0 102723
05:00+6всв129187 0.0 102522
08:00+6всв228887 0.0 102581
11:00+11всв3468100 0.0 1025471
14:00+14в3561100 0.0 1022996
17:00+13вюв1366100 0.1 1020331
20:00+11юз1178100 0.1 102223
3 марта, ср
ср323:00+11вюв1281100 0.1 102328
02:00+10в1188100 0.6 102342
05:00+9ююз0089100 0.8 102189
08:00+9ююз1191100 1.9 102298
11:00+11юз1179100 0.3 1022425
14:00+11зюз1174100 0.3 1019596
17:00+12ю117388 0.1 1017588
20:00+10св118490 0.1 101822
4 марта, чт
чт423:00+9юв118862 0.0 102122
02:00+8вюв118880 0.0 101922
05:00+8вюв118998 0.0 101722
08:00+8всв118698 0.0 101725
11:00+14св226664 0.0 1015538
14:00+15св236466 0.0 1011550
17:00+17всв235953 0.0 1009657
20:00+14всв227376 0.1 101046